Ogden Hill AFB, UT

10:53 PM MDT on May 25, 2017 (GMT -0600)
Hill Air Force Base

Weather History for KHIF - January, 2013

Change the Weather History Date:

Monday, January 21, 2013

  Actual Average Record
Temperature  
Mean Temperature 10 °F -  
Max Temperature 16 °F 34 °F 51 °F (2003)
Min Temperature 3 °F 22 °F 3 °F (2013)
Degree Days  
Heating Degree Days 56    
Moisture  
Dew Point 4 °F    
Average Humidity 83    
Maximum Humidity 85    
Minimum Humidity 78    
Precipitation  
Precipitation 0.00 in - - ()
Sea Level Pressure  
Sea Level Pressure 30.51 in    
Wind  
Wind Speed 2 mph (WNW)    
Max Wind Speed 6 mph    
Max Gust Speed -    
Visibility 4 miles    
Events Fog , Snow    
Averages and records for this station are not official NWS values.
T = Trace of Precipitation, MM = Missing Value Source: NWS Daily Summary

Daily Weather History Graph

Daily Weather History Graph

Search for Another Location

Airport or City:

Trip Planner

Search our weather history database for the weather conditions in past years. The results will help you decide how hot, cold, wet, or windy it might be!

Date:

Astronomy

Jan. 21, 2013 Rise Set
Actual Time 7:47 AM MST 5:31 PM MST
Civil Twilight 7:17 AM MST 6:01 PM MST
Nautical Twilight 6:44 AM MST 6:35 PM MST
Astronomical Twilight 6:11 AM MST 7:07 PM MST
Moon 1:13 PM MST (1/21) 3:19 AM MST (1/21)
Length of Visible Light 10h 43m
Length of Day
9h 44m
Waxing Gibbous, 75% of the Moon is Illuminated
Jan 21
Waxing Gibbous
Jan 26
Full
Feb 3
Last Quarter
Feb 10
New
Feb 17
First Quarter

Hourly Weather History & Observations

Time (MST) Temp. Windchill Dew Point Humidity Pressure Visibility Wind Dir Wind Speed Gust Speed Precip Events Conditions
12:13 AM 8.6 °F - 5.0 °F 85% 30.47 in 2.5 mi North 2.3 mph - N/A Snow Light Snow
12:18 AM 8.6 °F - 5.0 °F 85% 30.47 in 3.0 mi NW 2.3 mph - N/A Snow Light Snow
12:23 AM 8.6 °F - 5.0 °F 85% 30.47 in 3.0 mi NW 2.3 mph - N/A Snow Light Snow
12:24 AM 8.6 °F - 5.0 °F 85% 30.47 in 3.0 mi NW 2.3 mph - N/A   Haze
12:26 AM 10.4 °F - 5.0 °F 79% 30.47 in 3.0 mi NW 2.3 mph - N/A Snow Light Snow
12:46 AM 10.4 °F - 5.0 °F 79% 30.47 in 3.0 mi NW 1.2 mph - N/A Snow Light Snow
12:51 AM 10.4 °F - 5.0 °F 79% 30.47 in 3.0 mi Calm Calm - N/A   Haze
12:52 AM 10.4 °F - 5.0 °F 79% 30.46 in 2.5 mi Calm Calm - N/A   Light Freezing Drizzle
12:58 AM 9.9 °F - 5.7 °F 83% 30.63 in 2.5 mi Calm Calm - 0.00 in   Light Freezing Drizzle
1:00 AM 10.4 °F - 5.0 °F 79% 30.46 in 2.5 mi Calm Calm - N/A Snow Light Snow
1:10 AM 10.4 °F - 5.0 °F 79% 30.46 in 2.0 mi Calm Calm - N/A Snow Light Snow
1:11 AM 10.4 °F - 5.0 °F 79% 30.46 in 2.0 mi Calm Calm - N/A   Haze
1:12 AM 10.4 °F - 5.0 °F 79% 30.46 in 2.0 mi Calm Calm - N/A   Light Freezing Drizzle
1:22 AM 10.4 °F - 5.0 °F 79% 30.47 in 2.5 mi SE 1.2 mph - N/A Snow Light Snow
1:32 AM 8.6 °F 2.0 °F 5.0 °F 85% 30.47 in 2.0 mi ESE 3.5 mph - N/A Snow Light Snow
1:42 AM 8.6 °F - 5.0 °F 85% 30.47 in 3.0 mi ESE 2.3 mph - N/A Snow Light Snow
1:52 AM 8.6 °F - 5.0 °F 85% 30.47 in 3.0 mi East 2.3 mph - N/A Snow Light Snow
1:58 AM 8.6 °F - 4.5 °F 83% 30.66 in 3.0 mi East 2.3 mph - 0.00 in Snow Light Snow
2:11 AM 8.6 °F 2.0 °F 3.2 °F 79% 30.47 in 3.0 mi East 3.5 mph - N/A   Haze
2:12 AM 8.6 °F 2.0 °F 3.2 °F 79% 30.47 in 3.0 mi East 3.5 mph - N/A   Light Freezing Drizzle
2:25 AM 6.8 °F - 3.2 °F 85% 30.47 in 4.0 mi East 2.3 mph - N/A Snow Light Snow
2:29 AM 8.6 °F - 3.2 °F 79% 30.47 in 4.0 mi East 2.3 mph - N/A   Haze
2:30 AM 8.6 °F - 3.2 °F 79% 30.47 in 4.0 mi ESE 1.2 mph - N/A   Light Freezing Drizzle
2:50 AM 6.8 °F -0.1 °F 3.2 °F 85% 30.47 in 5.0 mi ENE 3.5 mph - N/A   Light Freezing Drizzle
2:58 AM 7.3 °F - 3.0 °F 82% 30.66 in 5.0 mi East 2.3 mph - 0.00 in   Light Freezing Drizzle
3:09 AM 6.8 °F - 3.2 °F 85% 30.47 in 5.0 mi ESE 1.2 mph - N/A   Light Freezing Drizzle
3:13 AM 6.8 °F - 3.2 °F 85% 30.47 in 5.0 mi SE 1.2 mph - N/A   Haze
3:18 AM 6.8 °F - 1.4 °F 79% 30.47 in 4.0 mi Calm Calm - N/A   Haze
3:28 AM 6.8 °F - 1.4 °F 79% 30.47 in 5.0 mi Calm Calm - N/A   Haze
3:38 AM 6.8 °F - 3.2 °F 85% 30.47 in 5.0 mi Calm Calm - N/A   Haze
3:43 AM 8.6 °F - 3.2 °F 79% 30.47 in 4.0 mi Calm Calm - N/A Snow Light Snow
3:58 AM 8.4 °F - 4.3 °F 83% 30.66 in 3.0 mi Calm Calm - 0.00 in Snow Light Snow
4:03 AM 8.6 °F - 5.0 °F 85% 30.46 in 2.5 mi East 2.3 mph - N/A Snow Light Snow
4:33 AM 6.8 °F - 3.2 °F 85% 30.46 in 3.0 mi Calm Calm - N/A Snow Light Snow
4:36 AM 8.6 °F - 3.2 °F 79% 30.46 in 3.0 mi Calm Calm - N/A   Haze
4:56 AM 8.6 °F - 3.2 °F 79% 30.46 in 3.0 mi WSW 1.2 mph - N/A   Haze
4:58 AM 8.6 °F - 3.2 °F 79% 30.66 in 3.0 mi WSW 2.3 mph - 0.00 in   Haze
5:03 AM 6.8 °F - 3.2 °F 85% 30.46 in 3.0 mi SSW 1.2 mph - N/A   Haze
5:04 AM 6.8 °F - 3.2 °F 85% 30.46 in 3.0 mi SW 2.3 mph - N/A Snow Light Snow
5:19 AM 8.6 °F - 3.2 °F 79% 30.46 in 3.0 mi Calm Calm - N/A Snow Light Snow
5:24 AM 8.6 °F - 5.0 °F 85% 30.46 in 3.0 mi West 2.3 mph - N/A   Haze
5:25 AM 8.6 °F - 5.0 °F 85% 30.46 in 3.0 mi West 2.3 mph - N/A Snow Light Snow
5:35 AM 8.6 °F - 3.2 °F 79% 30.46 in 3.0 mi NE 2.3 mph - N/A Snow Light Snow
5:45 AM 6.8 °F - 3.2 °F 85% 30.47 in 2.5 mi ENE 2.3 mph - N/A Snow Light Snow
5:50 AM 6.8 °F - 3.2 °F 85% 30.46 in 2.5 mi East 1.2 mph - N/A Snow Light Snow
5:58 AM 7.7 °F - 3.4 °F 83% 30.67 in 2.0 mi Calm Calm - 0.00 in Snow Light Snow
6:13 AM 6.8 °F - 3.2 °F 85% 30.46 in 3.0 mi South 2.3 mph - N/A Snow Light Snow
6:16 AM 6.8 °F - 3.2 °F 85% 30.46 in 4.0 mi SSW 1.2 mph - N/A   Haze
6:21 AM 6.8 °F - 3.2 °F 85% 30.46 in 5.0 mi SSW 2.3 mph - N/A   Mostly Cloudy
6:26 AM 6.8 °F - 1.4 °F 79% 30.46 in 5.0 mi Calm Calm - N/A   Scattered Clouds
6:51 AM 5.0 °F - -0.4 °F 78% 30.46 in 4.0 mi SSW 1.2 mph - N/A   Haze
6:58 AM 3.7 °F - -0.9 °F 81% 30.69 in 4.0 mi Calm Calm - 0.00 in   Haze
7:13 AM 5.0 °F - 1.4 °F 85% 30.46 in 3.0 mi South 2.3 mph - N/A   Haze
7:23 AM 5.0 °F - 1.4 °F 85% 30.46 in 5.0 mi South 2.3 mph - N/A   Haze
7:28 AM 5.0 °F - 1.4 °F 85% 30.47 in 4.0 mi SSW 2.3 mph - N/A   Haze
7:43 AM 5.0 °F -2.1 °F 1.4 °F 85% 30.47 in 2.5 mi SW 3.5 mph - N/A   Haze
7:51 AM 5.0 °F - 1.4 °F 85% 30.47 in 3.0 mi SSW 2.3 mph - N/A   Haze
7:58 AM 5.4 °F - 0.9 °F 82% 30.70 in 3.0 mi WNW 1.2 mph - N/A   Haze
8:03 AM 5.0 °F - 1.4 °F 85% 30.47 in 3.0 mi Variable 1.2 mph - N/A   Haze
8:08 AM 5.0 °F - 1.4 °F 85% 30.47 in 2.5 mi SSE 1.2 mph - N/A   Haze
8:24 AM 5.0 °F - 1.4 °F 85% 30.47 in 2.5 mi Calm Calm - N/A Snow Light Snow
8:29 AM 5.0 °F - 1.4 °F 85% 30.47 in 3.0 mi ESE 2.3 mph - N/A Snow Light Snow
8:33 AM 5.0 °F - 1.4 °F 85% 30.47 in 4.0 mi ESE 2.3 mph - N/A   Haze
8:43 AM 5.0 °F - 1.4 °F 85% 30.48 in 5.0 mi East 2.3 mph - N/A   Clear
8:58 AM 7.2 °F - 2.7 °F 82% 30.71 in 6.0 mi ENE 2.3 mph - 0.00 in   Haze
9:07 AM 8.6 °F - 3.2 °F 79% 30.49 in 5.0 mi NE 2.3 mph - N/A Snow Light Snow
9:12 AM 8.6 °F - 3.2 °F 79% 30.49 in 4.0 mi NE 2.3 mph - N/A Snow Light Snow
9:22 AM 8.6 °F - 5.0 °F 85% 30.49 in 5.0 mi Calm Calm - N/A   Haze
9:27 AM 10.4 °F - 5.0 °F 79% 30.49 in 3.0 mi Calm Calm - N/A   Clear
9:32 AM 10.4 °F - 5.0 °F 79% 30.49 in 2.5 mi NNW 1.2 mph - N/A   Clear
9:37 AM 10.4 °F - 5.0 °F 79% 30.49 in 3.0 mi WNW 1.2 mph - N/A   Haze
9:47 AM 10.4 °F - 5.0 °F 79% 30.49 in 5.0 mi WNW 1.2 mph - N/A   Haze
9:58 AM 10.6 °F - 6.4 °F 83% 30.71 in 5.0 mi West 1.2 mph - 0.00 in   Haze
10:58 AM 12.2 °F - 8.1 °F 83% 30.69 in 9.0 mi WSW 1.2 mph - N/A   Clear
11:11 AM 12.2 °F - 8.6 °F 85% 30.49 in 10.0 mi West 2.3 mph - N/A Snow Light Snow
11:28 AM 12.2 °F - 8.6 °F 85% 30.49 in 10.0 mi Calm Calm - N/A   Clear
11:58 AM 14.2 °F - 9.9 °F 83% 30.67 in 10.0 mi NW 1.2 mph - 0.00 in   Clear
12:58 PM 15.6 °F - 11.8 °F 85% 30.62 in 10.0 mi WSW 2.3 mph - N/A   Clear
1:58 PM 16.5 °F 11.0 °F 12.7 °F 85% 30.63 in 10.0 mi West 3.5 mph - N/A   Clear
2:58 PM 16.9 °F 8.5 °F 12.4 °F 82% 30.61 in 10.0 mi NW 5.8 mph - N/A   Clear
3:58 PM 14.5 °F 7.1 °F 9.3 °F 80% 30.61 in 10.0 mi WNW 4.6 mph - N/A   Clear
4:58 PM 13.5 °F 5.8 °F 8.2 °F 80% 30.58 in 10.0 mi West 4.6 mph - N/A   Clear
5:58 PM 9.9 °F 1.6 °F 5.9 °F 84% 30.62 in 10.0 mi NW 4.6 mph - N/A   Clear
6:58 PM 10.2 °F 3.8 °F 6.4 °F 85% 30.61 in 9.0 mi NW 3.5 mph - N/A   Clear
7:58 PM 9.0 °F 0.6 °F 5.4 °F 85% 30.63 in 7.0 mi North 4.6 mph - N/A   Clear
8:58 PM 9.0 °F - 5.4 °F 85% 30.61 in 6.0 mi Calm Calm - N/A   Clear
9:53 PM 8.6 °F - 5.0 °F 85% 30.42 in 4.0 mi NW 2.3 mph - N/A   Clear
9:58 PM 8.6 °F - 5.0 °F 85% 30.62 in 0.8 mi NW 1.2 mph - N/A   Clear
10:03 PM 8.6 °F - 5.0 °F 85% 30.42 in 0.2 mi NNW 2.3 mph - N/A Fog Light Freezing Fog
10:13 PM 6.8 °F - 3.2 °F 85% 30.42 in 0.5 mi North 2.3 mph - N/A Fog Light Freezing Fog
10:23 PM 6.8 °F - 1.4 °F 79% 30.42 in 0.2 mi Calm Calm - N/A Fog Light Freezing Fog
10:26 PM 5.0 °F - 1.4 °F 85% 30.42 in 0.2 mi Calm Calm - N/A   Haze
10:58 PM 4.8 °F - 0.7 °F 83% 30.63 in 0.2 mi Calm Calm - N/A   Haze
11:48 PM 5.0 °F - 1.4 °F 85% 30.42 in 0.2 mi NW 1.2 mph - N/A   Haze
11:53 PM 5.0 °F - 1.4 °F 85% 30.42 in 0.2 mi NNW 2.3 mph - N/A   Haze
11:58 PM 4.8 °F - 0.5 °F 82% 30.62 in 0.2 mi NW 2.3 mph - N/A   Haze